| time (UTC) | temp C | wind direction | speed KPH | gust KPH | rain 1hr cm | rain 24hr cm | rain mn cm | humidity % | barometer mb |
| 20260901060036 | 20 | 61 | 0.0 | 3.2 | 0.00 | 0.00 | 0.00 | 60 | 1008.7 |
| 20260901054536 | 20 | 55 | 4.8 | 6.4 | 0.00 | 0.00 | 0.00 | 59 | 1008.6 |
| 20260901053036 | 21 | 68 | 4.8 | 11.3 | 0.00 | 0.00 | 0.00 | 59 | 1008.8 |
| 20260901051542 | 21 | 72 | 0.0 | 4.8 | 0.00 | 0.00 | 0.00 | 58 | 1008.7 |
| 20260901050035 | 21 | 64 | 4.8 | 8.0 | 0.00 | 0.00 | 0.00 | 59 | 1008.7 |
| 20260901044551 | 21 | 172 | 0.0 | 6.4 | 0.00 | 0.00 | 0.00 | 58 | 1009.0 |
| 20260901043034 | 21 | 172 | 0.0 | 3.2 | 0.00 | 0.00 | 0.00 | 58 | 1009.0 |
| 20260901041533 | 21 | 115 | 4.8 | 8.0 | 0.00 | 0.00 | 0.00 | 55 | 1009.0 |
| 20260901040033 | 22 | 138 | 0.0 | 3.2 | 0.00 | 0.00 | 0.00 | 53 | 1009.0 |
| 20260901034535 | 22 | 132 | 4.8 | 12.9 | 0.00 | 0.00 | 0.00 | 52 | 1009.2 |
| 20260901033049 | 22 | 188 | 1.6 | 16.1 | 0.00 | 0.00 | 0.00 | 50 | 1009.4 |
| 20260901031533 | 22 | 179 | 6.4 | 14.5 | 0.00 | 0.00 | 0.00 | 49 | 1009.6 |
| 20260901030035 | 22 | 216 | 9.7 | 20.9 | 0.00 | 0.00 | 0.00 | 51 | 1009.3 |
| 20260901024530 | 22 | 240 | 4.8 | 11.3 | 0.00 | 0.00 | 0.00 | 53 | 1009.2 |
| 20260901023031 | 22 | 211 | 6.4 | 12.9 | 0.00 | 0.00 | 0.00 | 51 | 1008.5 |
| 20260901021536 | 22 | 170 | 8.0 | 12.9 | 0.00 | 0.00 | 0.00 | 50 | 1007.7 |
| 20260901020033 | 23 | 199 | 12.9 | 19.3 | 0.00 | 0.00 | 0.00 | 47 | 1007.5 |
| 20260901014528 | 23 | 136 | 4.8 | 9.7 | 0.00 | 0.00 | 0.00 | 47 | 1006.9 |
| 20260901013032 | 24 | 139 | 6.4 | 20.9 | 0.00 | 0.00 | 0.00 | 47 | 1006.7 |
| 20260901011528 | 25 | 110 | 6.4 | 22.5 | 0.00 | 0.00 | 0.00 | 45 | 1006.7 |
| 20260901010030 | 25 | 76 | 3.2 | 24.1 | 0.00 | 0.00 | 0.00 | 42 | 1006.1 |
| 20260901004526 | 26 | 94 | 3.2 | 8.0 | 0.00 | 0.00 | 0.00 | 39 | 1005.8 |
| 20260901003036 | 26 | 181 | 1.6 | 4.8 | 0.00 | 0.00 | 0.00 | 39 | 1005.8 |
| 20260901001524 | 26 | 181 | 1.6 | 6.4 | 0.00 | 0.00 | 0.00 | 38 | 1005.8 |
| 20260901000031 | 26 | 130 | 1.6 | 11.3 | 0.00 | 0.00 | 0.00 | 40 | 1006.1 |
| 20260831234522 | 26 | 178 | 3.2 | 9.7 | 0.00 | 0.00 | 0.00 | 40 | 1006.0 |
| 20260831233021 | 26 | 153 | 4.8 | 12.9 | 0.00 | 0.00 | 0.00 | 41 | 1006.0 |
| 20260831231519 | 26 | 164 | 8.0 | 17.7 | 0.00 | 0.00 | 0.00 | 40 | 1006.4 |
| 20260831230018 | 27 | 175 | 6.4 | 22.5 | 0.00 | 0.00 | 0.00 | 34 | 1006.5 |
| 20260831224514 | 28 | 161 | 9.7 | 19.3 | 0.00 | 0.00 | 0.00 | 31 | 1006.8 |
| 20260831223012 | 28 | 136 | 11.3 | 19.3 | 0.00 | 0.00 | 0.00 | 30 | 1007.1 |
| 20260831221511 | 28 | 122 | 8.0 | 14.5 | 0.00 | 0.00 | 0.00 | 28 | 1007.6 |
| 20260831220020 | 28 | 171 | 6.4 | 17.7 | 0.00 | 0.00 | 0.00 | 27 | 1007.7 |
| 20260831214509 | 28 | 78 | 4.8 | 11.3 | 0.00 | 0.00 | 0.00 | 27 | 1007.5 |
| 20260831213010 | 28 | 215 | 1.6 | 11.3 | 0.00 | 0.00 | 0.00 | 27 | 1007.6 |
| 20260831211507 | 28 | 261 | 0.0 | 6.4 | 0.00 | 0.00 | 0.00 | 26 | 1007.6 |
| 20260831210007 | 28 | 213 | 4.8 | 11.3 | 0.00 | 0.00 | 0.00 | 27 | 1007.7 |
| 20260831204507 | 28 | 281 | 4.8 | 9.7 | 0.00 | 0.00 | 0.00 | 28 | 1008.0 |
| 20260831203006 | 28 | 332 | 3.2 | 12.9 | 0.00 | 0.00 | 0.00 | 28 | 1008.1 |
| 20260831201505 | 28 | 299 | 9.7 | 19.3 | 0.00 | 0.00 | 0.00 | 27 | 1008.1 |
| 20260831200005 | 28 | 233 | 3.2 | 24.1 | 0.00 | 0.00 | 0.00 | 28 | 1008.1 |
| 20260831194507 | 28 | 308 | 11.3 | 24.1 | 0.00 | 0.00 | 0.00 | 27 | 1008.2 |
| 20260831193004 | 28 | 317 | 9.7 | 24.1 | 0.00 | 0.00 | 0.00 | 27 | 1008.2 |
| 20260831191504 | 28 | 280 | 9.7 | 25.7 | 0.00 | 0.00 | 0.00 | 27 | 1008.4 |
| 20260831190004 | 29 | 297 | 8.0 | 20.9 | 0.00 | 0.00 | 0.00 | 27 | 1008.4 |
| 20260831184503 | 28 | 291 | 11.3 | 22.5 | 0.00 | 0.00 | 0.00 | 29 | 1008.8 |
| 20260831183104 | 28 | 250 | 8.0 | 17.7 | 0.00 | 0.00 | 0.00 | 28 | 1009.0 |
| 20260831181602 | 28 | 261 | 8.0 | 17.7 | 0.00 | 0.00 | 0.00 | 30 | 1009.2 |
| 20260831180100 | 27 | 302 | 8.0 | 20.9 | 0.00 | 0.00 | 0.00 | 31 | 1009.6 |
| 20260831174555 | 27 | 307 | 4.8 | 17.7 | 0.00 | 0.00 | 0.00 | 31 | 1009.6 |
| 20260831173057 | 27 | 340 | 3.2 | 17.7 | 0.00 | 0.00 | 0.00 | 32 | 1009.7 |
| 20260831171551 | 27 | 321 | 6.4 | 16.1 | 0.00 | 0.00 | 0.00 | 32 | 1009.7 |
| 20260831170049 | 26 | 323 | 3.2 | 8.0 | 0.00 | 0.00 | 0.00 | 33 | 1009.7 |
| 20260831164545 | 26 | 300 | 3.2 | 12.9 | 0.00 | 0.00 | 0.00 | 35 | 1009.8 |
| 20260831163042 | 25 | 290 | 9.7 | 16.1 | 0.00 | 0.00 | 0.00 | 39 | 1009.8 |
| 20260831161541 | 23 | 250 | 0.0 | 9.7 | 0.00 | 0.00 | 0.00 | 46 | 1010.0 |
| 20260831160035 | 22 | 253 | 3.2 | 8.0 | 0.00 | 0.00 | 0.00 | 47 | 1010.2 |
| 20260831154532 | 21 | 253 | 3.2 | 8.0 | 0.00 | 0.00 | 0.00 | 45 | 1010.3 |
| 20260831153029 | 20 | 203 | 3.2 | 9.7 | 0.00 | 0.00 | 0.00 | 51 | 1010.4 |
| 20260831151530 | 20 | 190 | 1.6 | 6.4 | 0.00 | 0.00 | 0.00 | 53 | 1010.2 |
| 20260831150028 | 19 | 241 | 0.0 | 9.7 | 0.00 | 0.00 | 0.00 | 56 | 1010.1 |
| 20260831144527 | 18 | 356 | 3.2 | 9.7 | 0.00 | 0.00 | 0.00 | 56 | 1009.9 |
| 20260831143027 | 18 | 213 | 0.0 | 8.0 | 0.00 | 0.00 | 0.00 | 57 | 1010.4 |
| 20260831141526 | 18 | 261 | 1.6 | 6.4 | 0.00 | 0.00 | 0.00 | 58 | 1010.3 |
| 20260831140027 | 18 | 317 | 1.6 | 6.4 | 0.00 | 0.00 | 0.00 | 60 | 1010.1 |
| 20260831134523 | 17 | 12 | 0.0 | 3.2 | 0.00 | 0.00 | 0.00 | 60 | 1010.2 |
| 20260831133026 | 17 | 12 | 0.0 | 6.4 | 0.00 | 0.00 | 0.00 | 61 | 1010.2 |
| 20260831131518 | 17 | 7 | 3.2 | 8.0 | 0.00 | 0.00 | 0.00 | 61 | 1010.0 |
| 20260831130018 | 17 | 8 | 0.0 | 8.0 | 0.00 | 0.00 | 0.00 | 62 | 1009.6 |
| 20260831124519 | 17 | 324 | 3.2 | 8.0 | 0.00 | 0.00 | 0.00 | 63 | 1009.4 |
| 20260831123015 | 17 | 309 | 0.0 | 6.4 | 0.00 | 0.00 | 0.00 | 63 | 1009.3 |
| 20260831121515 | 17 | 298 | 0.0 | 3.2 | 0.00 | 0.00 | 0.00 | 64 | 1009.1 |
| 20260831120014 | 17 | 257 | 0.0 | 0.0 | 0.00 | 0.00 | 0.00 | 65 | 1009.0 |
| 20260831114514 | 17 | 180 | 0.0 | 0.0 | 0.00 | 0.00 | 0.00 | 65 | 1008.8 |
| 20260831113013 | 17 | 180 | 0.0 | 0.0 | 0.00 | 0.00 | 0.00 | 65 | 1008.7 |
| 20260831111511 | 17 | 180 | 0.0 | 0.0 | 0.00 | 0.00 | 0.00 | 66 | 1008.7 |
| 20260831110011 | 16 | 180 | 0.0 | 0.0 | 0.00 | 0.00 | 0.00 | 66 | 1008.4 |
| 20260831104517 | 17 | 180 | 0.0 | 0.0 | 0.00 | 0.00 | 0.00 | 66 | 1008.5 |
| 20260831103009 | 17 | 180 | 0.0 | 0.0 | 0.00 | 0.00 | 0.00 | 67 | 1008.7 |
| 20260831101513 | 17 | 180 | 0.0 | 0.0 | 0.00 | 0.00 | 0.00 | 67 | 1008.4 |
| 20260831100005 | 17 | 180 | 0.0 | 1.6 | 0.00 | 0.00 | 0.00 | 65 | 1008.5 |
| 20260831094504 | 17 | 228 | 1.6 | 6.4 | 0.00 | 0.00 | 0.00 | 64 | 1008.4 |
| 20260831093002 | 17 | 223 | 0.0 | 0.0 | 0.00 | 0.00 | 0.00 | 64 | 1008.0 |
| 20260831091505 | 17 | 223 | 0.0 | 0.0 | 0.00 | 0.00 | 0.00 | 64 | 1008.1 |
| 20260831090101 | 18 | 223 | 0.0 | 1.6 | 0.00 | 0.00 | 0.00 | 63 | 1007.9 |
| 20260831084605 | 18 | 295 | 1.6 | 8.0 | 0.00 | 0.00 | 0.00 | 63 | 1007.8 |
| 20260831083100 | 18 | 298 | 0.0 | 6.4 | 0.00 | 0.00 | 0.00 | 61 | 1007.7 |
| 20260831081602 | 18 | 298 | 0.0 | 0.0 | 0.00 | 0.00 | 0.00 | 60 | 1007.8 |
| 20260831080125 | 19 | 298 | 0.0 | 8.0 | 0.00 | 0.00 | 0.00 | 60 | 1007.8 |
| 20260831074551 | 19 | 315 | 3.2 | 11.3 | 0.00 | 0.00 | 0.00 | 60 | 1008.2 |
| 20260831073110 | 19 | 303 | 8.0 | 11.3 | 0.00 | 0.00 | 0.00 | 59 | 1008.7 |
| 20260831071551 | 20 | 257 | 1.6 | 9.7 | 0.00 | 0.00 | 0.00 | 59 | 1009.2 |
| 20260831070041 | 20 | 324 | 0.0 | 8.0 | 0.00 | 0.00 | 0.00 | 58 | 1009.6 |
| 20260831064542 | 20 | 223 | 1.6 | 12.9 | 0.00 | 0.00 | 0.00 | 56 | 1010.0 |
| 20260831063044 | 20 | 246 | 0.0 | 6.4 | 0.00 | 0.00 | 0.00 | 54 | 1009.7 |
| 20260831061536 | 20 | 13 | 0.0 | 6.4 | 0.00 | 0.00 | 0.00 | 53 | 1009.8 |